Details for Norwegian Air Shuttle at ENVA




Go Back


Latest METAR
Local Time

ENVA 181250Z 25009KT 9999 FEW035 BKN048 15/11 Q0998 NOSIG RMK WIND 670FT 00000KT
18/09/2018, 15:16:55

Description
Results
Norwegian Air Shuttle Logo
Number of Pilots based at ENVA
0 Pilots Based here
Number of Norwegian Air Shuttle Flights Departed from ENVA
0 Flights Departed
Number of Norwegian Air Shuttle Flights Arrived at ENVA
1 Flights Arrived
Number of Norwegian Air Shuttle Schedules Departing from ENVA
26 Schedules
Number of Norwegian Air Shuttle Schedules Arriving at ENVA
25 Schedules
Number of Norwegian Air Shuttle Schedules Departing from ENVA availible today
16 Schedules Today
Number of Norwegian Air Shuttle Schedules Arriving at ENVA availible today
16 Schedules Today
Average Landing Rate at ENVA
-282 fpm
Norwegian Air Shuttle Average Landing Rate at ENVA
-67 fpm
Total Fuel Purchased at ENVA by Norwegian Air Shuttle
0.00 kgs / 0.00 lbs

Pilots Based at ENVA


Pilot ID
Pilot Name
Pilot Rank
No. of Flights
No. of Flying Hours
There are no pilots assigned to this hub!   Will you be the first?
Content